Change the Weather History Date:

Tuesday, March 19, 2013

  Actual Average Record
Temperature  
Mean Temperature 30 °F 36 °F  
Max Temperature 34 °F 46 °F 78 °F (2012)
Min Temperature 25 °F 27 °F -10 °F (1967)
Degree Days  
Heating Degree Days 35 29  
Month to date heating degree days 608 613  
Since 1 July heating degree days 5146 5557  
Cooling Degree Days 0 0  
Month to date cooling degree days 0 0  
Year to date cooling degree days 0 0  
Moisture  
Dew Point 27 °F    
Average Humidity 88    
Maximum Humidity 100    
Minimum Humidity 75    
Precipitation  
Precipitation 0.50 in 0.11 in 1.12 in (1896)
Month to date precipitation 2.32 1.90  
Year to date precipitation 5.45 6.69  
Snow  
Snow 5.10 in 0.30 in 9.60 in (1971)
Month to date snowfall 19.5 7.4  
Since 1 July snowfall 50.2 53.9  
Snow Depth 3.00 in    
Sea Level Pressure  
Sea Level Pressure 29.85 in    
Wind  
Wind Speed 5 mph (NNW)    
Max Wind Speed 21 mph    
Max Gust Speed 29 mph    
Visibility 4 miles    
Events Fog , Snow    
T = Trace of Precipitation, MM = Missing Value Source: NWS Daily Summary

Daily Weather History Graph

Daily Weather History Graph

Search for Another Location

Airport or City:

Trip Planner

Search our weather history database for the weather conditions in past years. The results will help you decide how hot, cold, wet, or windy it might be!

Date:

Astronomy

Mar. 19, 2013 Rise Set
Actual Time 6:59 AM EDT 7:06 PM EDT
Civil Twilight 6:31 AM EDT 7:34 PM EDT
Nautical Twilight 5:58 AM EDT 8:07 PM EDT
Astronomical Twilight 5:25 AM EDT 8:41 PM EDT
Moon 11:40 AM EDT (3/19) 1:59 AM EDT (3/19)
Length of Visible Light 13h 03m
Length of Day
12h 06m
Waxing Crescent, 49% of the Moon is Illuminated
Mar 19
Waxing Crescent
Mar 19
First Quarter
Mar 27
Full
Apr 3
Last Quarter
Apr 10
New

Hourly Weather History & Observations

Time (EDT) Temp. Windchill Dew Point Humidity Pressure Visibility Wind Dir Wind Speed Gust Speed Precip Events Conditions
12:01 AM 26.6 °F 22.6 °F 24.8 °F 93% 30.08 in 1.0 mi ESE 3.5 mph - 0.00 in Snow Light Snow
12:10 AM 26.6 °F 20.0 °F 24.8 °F 93% 30.08 in 0.8 mi ESE 5.8 mph - 0.01 in Snow Light Snow
12:14 AM 26.6 °F 21.2 °F 24.8 °F 93% 30.07 in 0.5 mi ESE 4.6 mph - 0.02 in Fog , Snow Snow
12:42 AM 26.6 °F - 26.6 °F 100% 30.05 in 0.8 mi Calm Calm - 0.04 in Snow Light Snow
12:51 AM 27.0 °F - 26.1 °F 96% 30.06 in 0.8 mi Calm Calm - 0.05 in Snow Light Snow
1:12 AM 26.6 °F 21.2 °F 24.8 °F 93% 30.03 in 1.5 mi SE 4.6 mph - 0.00 in Snow Light Snow
1:36 AM 28.4 °F 23.3 °F 24.8 °F 86% 30.02 in 2.5 mi Variable 4.6 mph - 0.01 in Snow Light Snow
1:51 AM 28.0 °F 22.8 °F 25.0 °F 88% 30.02 in 2.5 mi SE 4.6 mph - 0.01 in Snow Light Snow
2:08 AM 28.4 °F 23.3 °F 24.8 °F 86% 30.01 in 2.5 mi SE 4.6 mph - 0.00 in Snow Light Snow
2:38 AM 28.4 °F 23.3 °F 24.8 °F 86% 29.98 in 3.0 mi SSE 4.6 mph - 0.00 in Snow Light Snow
2:51 AM 28.9 °F 22.8 °F 25.0 °F 85% 29.99 in 3.0 mi SSE 5.8 mph - 0.00 in Snow Light Snow
3:51 AM 28.9 °F 25.2 °F 25.0 °F 85% 29.95 in 8.0 mi SE 3.5 mph - 0.01 in Snow Light Snow
4:51 AM 28.9 °F 23.9 °F 24.1 °F 82% 29.92 in 9.0 mi South 4.6 mph - 0.00 in   Light Freezing Drizzle
5:27 AM 28.4 °F - 24.8 °F 86% 29.91 in 10.0 mi Calm Calm - 0.00 in Snow Light Ice Pellets
5:44 AM 28.4 °F 24.6 °F 24.8 °F 86% 29.90 in 9.0 mi North 3.5 mph - 0.00 in Snow Light Snow
5:51 AM 28.0 °F 24.2 °F 25.0 °F 88% 29.91 in 10.0 mi North 3.5 mph - 0.00 in Snow Light Snow
6:51 AM 28.0 °F 22.8 °F 26.1 °F 92% 29.89 in 10.0 mi NNW 4.6 mph - 0.00 in   Overcast
7:51 AM 28.9 °F 25.2 °F 26.1 °F 89% 29.87 in 8.0 mi NNW 3.5 mph - 0.00 in Snow Light Snow
8:24 AM 28.4 °F 23.3 °F 26.6 °F 93% 29.84 in 7.0 mi North 4.6 mph - 0.00 in Snow Light Snow
8:45 AM 28.4 °F 22.2 °F 26.6 °F 93% 29.84 in 8.0 mi NNW 5.8 mph - 0.00 in Snow Light Snow
8:51 AM 28.9 °F 21.9 °F 27.0 °F 92% 29.86 in 8.0 mi North 6.9 mph - 0.00 in Snow Light Snow
9:12 AM 28.4 °F 23.3 °F 26.6 °F 93% 29.83 in 7.0 mi NNE 4.6 mph - 0.01 in   Light Ice Pellets
9:19 AM 28.4 °F 22.2 °F 26.6 °F 93% 29.82 in 4.0 mi NE 5.8 mph - 0.01 in   Ice Pellets
9:28 AM 30.2 °F 24.3 °F 26.6 °F 86% 29.82 in 8.0 mi North 5.8 mph - 0.02 in   Light Ice Pellets
9:45 AM 30.2 °F 23.4 °F 26.6 °F 86% 29.82 in 2.0 mi North 6.9 mph - 0.02 in Snow Ice Pellets
9:51 AM 30.0 °F 24.1 °F 27.0 °F 88% 29.83 in 2.0 mi NNW 5.8 mph - 0.03 in Snow Light Ice Pellets
10:20 AM 30.2 °F 23.4 °F 28.4 °F 93% 29.85 in 1.5 mi NW 6.9 mph - 0.01 in Snow Light Snow
10:30 AM 30.2 °F 22.6 °F 28.4 °F 93% 29.85 in 0.8 mi NW 8.1 mph - 0.04 in Snow Light Snow
10:51 AM 30.9 °F 22.8 °F 28.9 °F 92% 29.85 in 0.5 mi North 9.2 mph - 0.07 in Fog , Snow Snow
10:59 AM 30.2 °F 23.4 °F 28.4 °F 93% 29.84 in 0.2 mi North 6.9 mph - 0.01 in Fog , Snow Snow
11:51 AM 30.9 °F 26.2 °F 28.9 °F 92% 29.84 in 0.2 mi North 4.6 mph - 0.10 in Fog , Snow Heavy Snow
11:59 AM 30.2 °F 25.4 °F 28.4 °F 93% 29.83 in 0.1 mi North 4.6 mph - 0.03 in Fog , Snow Heavy Snow
12:03 PM 30.2 °F 25.4 °F 28.4 °F 93% 29.83 in 0.2 mi North 4.6 mph - 0.04 in Fog , Snow Heavy Snow
12:31 PM 30.2 °F 23.4 °F 28.4 °F 93% 29.79 in 0.2 mi North 6.9 mph - 0.08 in Fog , Snow Snow
12:37 PM 30.2 °F 26.7 °F 28.4 °F 93% 29.80 in 0.5 mi NNE 3.5 mph - 0.08 in Snow Light Snow
12:51 PM 30.9 °F 26.2 °F 28.9 °F 92% 29.81 in 0.5 mi NW 4.6 mph - 0.09 in Snow Light Snow
1:09 PM 32.0 °F 28.7 °F 30.2 °F 93% 29.79 in 0.2 mi NW 3.5 mph - 0.01 in Fog , Snow Snow
1:21 PM 32.0 °F 28.7 °F 30.2 °F 93% 29.78 in 1.0 mi NW 3.5 mph - 0.02 in Snow Light Snow
1:32 PM 32.0 °F - 30.2 °F 93% 29.77 in 2.0 mi Calm Calm - 0.02 in Snow Light Snow
1:51 PM 32.0 °F 27.5 °F 30.0 °F 92% 29.76 in 2.0 mi NW 4.6 mph - 0.02 in Snow Light Snow
2:51 PM 33.1 °F 30.0 °F 30.9 °F 92% 29.73 in 2.0 mi NNW 3.5 mph - 0.00 in Snow Light Snow
3:22 PM 33.8 °F 29.6 °F 30.2 °F 87% 29.73 in 1.0 mi WNW 4.6 mph - 0.00 in Snow Light Snow
3:51 PM 33.1 °F 27.7 °F 30.9 °F 92% 29.73 in 1.0 mi WNW 5.8 mph - 0.02 in Snow Light Snow
4:43 PM 33.8 °F - 30.2 °F 87% 29.71 in 2.0 mi Calm Calm - 0.01 in Snow Light Snow
4:51 PM 33.1 °F - 30.9 °F 92% 29.72 in 2.0 mi Calm Calm - 0.01 in Snow Light Snow
5:20 PM 33.8 °F - 30.2 °F 87% 29.72 in 3.0 mi Calm Calm - 0.00 in Snow Light Snow
5:51 PM 33.1 °F - 30.9 °F 92% 29.73 in 3.0 mi Calm Calm - 0.00 in Snow Light Snow
6:24 PM 33.8 °F 30.8 °F 30.2 °F 87% 29.71 in 2.0 mi NE 3.5 mph - 0.01 in Snow Light Snow
6:42 PM 33.8 °F - 30.2 °F 87% 29.72 in 2.0 mi Calm Calm - 0.01 in Snow Light Snow
6:51 PM 33.1 °F 30.0 °F 30.9 °F 92% 29.72 in 3.0 mi ESE 3.5 mph - 0.01 in Snow Light Snow
7:51 PM 32.0 °F - 30.2 °F 93% 29.71 in 8.0 mi Calm Calm - N/A   Mostly Cloudy
8:12 PM 32.0 °F 25.6 °F 30.2 °F 93% 29.75 in 0.8 mi West 6.9 mph - 0.00 in Snow Light Snow
8:48 PM 32.0 °F 21.6 °F 30.2 °F 93% 29.77 in 0.2 mi WNW 15.0 mph 28.8 mph 0.10 in Fog , Snow Heavy Snow
8:51 PM 32.0 °F 20.8 °F 30.0 °F 92% 29.78 in 0.2 mi WNW 17.3 mph 28.8 mph 0.10 in Fog , Snow Snow
9:17 PM 30.2 °F 18.9 °F 28.4 °F 93% 29.78 in 0.5 mi WNW 16.1 mph 24.2 mph 0.02 in Fog , Snow Snow
9:26 PM 30.2 °F 18.1 °F 28.4 °F 93% 29.78 in 1.0 mi WNW 18.4 mph 27.6 mph 0.03 in Snow Light Snow
9:51 PM 30.9 °F 22.2 °F 25.0 °F 79% 29.80 in 8.0 mi WNW 10.4 mph - 0.03 in   Overcast
10:51 PM 28.0 °F 20.8 °F 21.9 °F 78% 29.81 in 10.0 mi WNW 6.9 mph - N/A   Mostly Cloudy
11:51 PM 27.0 °F 16.7 °F 19.9 °F 75% 29.81 in 10.0 mi WNW 11.5 mph - N/A   Scattered Clouds